#timestamp,LO_Frequency,Hit,StdDev 
1572321615.8,286047002.0,N
1572321635.7,286047002.8,N
1572321655.5,286047003.9,N
1572321675.3,286047001.4,N
1572321695.2,286047002.0,N
1572321715.0,286047000.2,N
1572321715.9,286047000.2,N
1572321735.8,286046999.9,N
1572321755.6,286047002.5,N
1572321775.4,286047002.5,N
1572321795.3,286047002.7,N
1572321815.1,286046999.9,N
1572321835.8,286047000.0,N
1572321855.7,286047002.3,N
1572321875.5,286047000.3,N
1572321895.4,286046998.7,N
1572321915.2,286046998.1,N
1572321935.0,286046998.8,N
1572321935.9,286046998.8,N
1572321955.8,286046998.9,N
1572321975.6,286046997.1,N
1572321995.5,286046996.8,N
1572322015.3,286046996.6,N
1572322035.1,286046998.5,N
1572322055.9,286046998.9,N
1572322075.7,286047000.7,N
1572322095.5,286046999.5,N
1572322115.4,286046997.0,N
1572322135.2,286046999.4,N
1572322155.1,286046996.5,N
1572322156.0,286046996.5,N
1572322175.8,286046996.8,N
1572322195.6,286046997.1,N
1572322215.5,286046995.7,N
1572322235.3,286046995.4,N
1572322255.2,286046996.8,N
1572322275.9,286046997.7,N
1572322295.7,286046994.9,N
1572322315.6,286046997.7,N
1572322335.4,286046995.1,N
1572322355.3,286046997.1,N
1572322375.1,286046996.9,N
1572322376.0,286046996.9,N
1572322395.8,286046999.2,N
1572322415.7,286046998.5,N
1572322435.5,286046998.7,N
1572322455.3,286046998.1,N
1572322475.2,286046998.1,N
1572322495.0,286047001.1,N
1572322495.9,286047001.1,N
1572322515.8,286047001.1,N
1572322535.6,286046998.3,N
1572322555.4,286046998.6,N
1572322575.3,286046998.6,N
1572322595.1,286046998.3,N
1572322615.9,286047001.1,N
1572322635.7,286046998.2,N
1572322655.5,286046999.4,N
1572322675.4,286046998.9,N
1572322695.2,286047000.7,N
1572322715.0,286046998.1,N
1572322715.9,286046998.1,N
1572322735.8,286046998.8,N
1572322755.6,286046996.9,N
1572322775.5,286046996.8,N
1572322795.3,286046998.0,N
1572322815.1,286046997.6,N
1572322835.9,286046997.4,N
1572322855.7,286046997.5,N
1572322875.5,286046997.3,N
1572322895.4,286046997.1,N
1572322915.2,286046997.0,N
1572322935.1,286046997.5,N
1572322936.0,286046997.5,N
1572322955.8,286046995.1,Y
1572322975.6,286046996.5,P
1572322995.5,286046999.1,N
1572323015.3,286046998.6,N
1572323035.1,286046999.3,N
1572323055.9,286046997.1,N
1572323075.7,286046999.5,N
1572323095.6,286046999.3,N
1572323115.4,286047001.1,N
1572323135.2,286047001.2,N
1572323155.1,286047000.7,N
1572323156.0,286047000.7,N
1572323175.8,286046999.3,N
1572323195.6,286046996.6,N
1572323215.5,286046997.1,N
1572323235.3,286046998.9,N
1572323255.2,286046999.3,N
1572323275.9,286047001.1,N
1572323295.7,286046999.4,N
1572323315.6,286046999.1,N
1572323335.4,286046999.1,N
1572323355.3,286046998.3,N
1572323375.1,286047000.9,N
1572323376.0,286047000.9,N
1572323395.8,286046998.8,N
1572323415.7,286047001.2,N
1572323435.5,286046998.2,N
1572323455.3,286046998.1,N
1572323475.2,286046998.2,N
1572323495.0,286046999.5,N
1572323495.9,286046999.5,N
1572323515.8,286046998.8,N
1572323535.6,286046998.9,N
1572323555.4,286046999.4,N
1572323575.3,286047000.9,N
1572323595.1,286046998.6,N
1572323615.9,286046998.6,N
1572323635.7,286046999.5,N
1572323655.5,286046999.4,N
1572323675.4,286046998.2,N
1572323695.2,286046998.9,N
1572323715.1,286046998.1,N
1572323716.0,286046998.1,N
1572323735.8,286046999.1,N
1572323755.6,286047000.7,N
1572323775.5,286047000.3,N
1572323795.3,286047000.3,N
1572323815.1,286046999.7,N
1572323835.9,286046999.7,N
1572323855.7,286046999.7,N
1572323875.6,286047002.1,N
1572323895.4,286046999.9,N
1572323915.2,286047002.4,N
1572323935.1,286047002.3,N
1572323936.0,286047002.3,N
1572323955.8,286047002.4,N
1572323975.6,286047002.8,N
1572323995.5,286047000.5,N
1572324015.3,286047000.1,N
1572324035.2,286047000.8,N
1572324055.9,286047001.2,N
1572324075.7,286047001.0,N
1572324095.6,286047000.8,N
1572324115.4,286046999.9,N
1572324135.2,286047000.3,N
1572324155.1,286046998.2,N
1572324156.0,286046998.2,N
1572324175.8,286046998.8,N
1572324195.7,286046998.6,N
1572324215.5,286047001.1,N
1572324235.3,286047000.8,N
1572324255.2,286047000.6,N
1572324275.0,286046998.8,N
1572324275.9,286046998.8,N
1572324295.7,286046999.4,N
1572324315.6,286047001.2,N
1572324335.4,286046999.8,N
1572324355.3,286047000.6,N
1572324375.1,286047000.7,N
1572324395.8,286047000.1,N
1572324415.7,286047000.9,N
1572324435.5,286046998.2,N
1572324455.4,286047001.2,N
1572324475.2,286046999.2,N
1572324495.0,286046998.9,N
1572324495.9,286046998.9,N
1572324515.8,286046999.0,N
1572324535.6,286046999.4,N
1572324555.4,286046997.0,N
1572324575.3,286046996.9,N
1572324595.1,286046997.3,N
1572324615.9,286046997.7,N
1572324635.7,286046997.7,N
1572324655.5,286046997.1,N
1572324675.4,286046997.4,N
1572324695.2,286046996.8,N
1572324715.0,286046997.8,N
1572324716.0,286046997.8,N
1572324735.8,286046997.1,N
1572324755.6,286046997.3,N
1572324775.5,286046996.8,N
1572324795.3,286046997.1,N
1572324815.1,286046994.9,Y
1572324835.9,286046998.7,P
1572324855.7,286046998.5,P
1572324875.6,286046998.8,P
1572324895.4,286046998.1,Y
1572324915.2,286047002.8,P
1572324935.1,286047002.8,N
1572324936.0,286047002.8,N
1572324955.8,286047002.5,N
1572324975.7,286047002.2,N
1572324995.5,286047002.0,N
1572325015.3,286047001.4,N
1572325035.2,286047001.4,N
1572325055.0,286047002.7,N
1572325055.9,286047002.7,N
1572325075.8,286047002.0,N
1572325095.6,286047004.2,Y
1572325115.4,286046998.2,P
1572325135.3,286046998.7,N
1572325155.1,286047001.0,N
1572325175.8,286046998.7,N
1572325195.7,286046996.7,N
